| time (UTC) | temp F | wind direction | speed knots | gust knots | rain 1hr in | rain 24hr in | rain mn in | humidity % | barometer mb |
| 20260507210038 | 83 | 187 | 1.7 | 3.5 | 0.00 | 0.00 | 0.00 | 82 | 1019.3 |
| 20260507205535 | 83 | 67 | 1.7 | 2.6 | 0.00 | 0.00 | 0.00 | 82 | 1019.0 |
| 20260507205031 | 83 | 138 | 1.7 | 7.0 | 0.00 | 0.00 | 0.00 | 83 | 1019.3 |
| 20260507204527 | 83 | 112 | 1.7 | 7.8 | 0.00 | 0.00 | 0.00 | 82 | 1019.3 |
| 20260507204025 | 83 | 107 | 0.9 | 3.5 | 0.00 | 0.00 | 0.00 | 82 | 1019.1 |
| 20260507203523 | 83 | 90 | 1.7 | 7.8 | 0.00 | 0.00 | 0.00 | 83 | 1019.3 |
| 20260507203020 | 83 | 57 | 3.5 | 6.1 | 0.00 | 0.00 | 0.00 | 83 | 1019.3 |
| 20260507202515 | 83 | 89 | 4.3 | 5.2 | 0.00 | 0.00 | 0.00 | 83 | 1019.3 |
| 20260507202012 | 84 | 149 | 2.6 | 5.2 | 0.00 | 0.00 | 0.00 | 83 | 1019.4 |
| 20260507201508 | 84 | 108 | 0.9 | 7.0 | 0.00 | 0.00 | 0.00 | 83 | 1019.5 |
| 20260507201004 | 85 | 171 | 5.2 | 7.0 | 0.00 | 0.00 | 0.00 | 82 | 1019.6 |
| 20260507200459 | 85 | 76 | 4.3 | 7.0 | 0.00 | 0.00 | 0.00 | 80 | 1019.5 |
| 20260507195955 | 85 | 109 | 0.9 | 8.7 | 0.00 | 0.00 | 0.00 | 79 | 1019.6 |
| 20260507195453 | 84 | 110 | 3.5 | 6.1 | 0.00 | 0.00 | 0.00 | 79 | 1019.6 |
| 20260507194950 | 84 | 89 | 2.6 | 7.0 | 0.00 | 0.00 | 0.00 | 81 | 1019.7 |
| 20260507194447 | 84 | 104 | 5.2 | 9.6 | 0.00 | 0.00 | 0.00 | 80 | 1019.7 |
| 20260507193942 | 84 | 90 | 3.5 | 6.1 | 0.00 | 0.00 | 0.00 | 81 | 1019.9 |
| 20260507193440 | 85 | 55 | 4.3 | 7.8 | 0.00 | 0.00 | 0.00 | 80 | 1019.8 |
| 20260507192937 | 86 | 116 | 1.7 | 8.7 | 0.00 | 0.00 | 0.00 | 80 | 1020.0 |
| 20260507192433 | 86 | 108 | 5.2 | 7.0 | 0.00 | 0.00 | 0.00 | 79 | 1019.8 |
| 20260507191930 | 85 | 82 | 3.5 | 8.7 | 0.00 | 0.00 | 0.00 | 79 | 1019.8 |
| 20260507191426 | 86 | 85 | 5.2 | 7.0 | 0.00 | 0.00 | 0.00 | 78 | 1020.0 |
| 20260507190922 | 85 | 97 | 7.8 | 11.3 | 0.00 | 0.00 | 0.00 | 80 | 1020.2 |
| 20260507190420 | 86 | 153 | 6.1 | 8.7 | 0.00 | 0.00 | 0.00 | 79 | 1020.1 |
| 20260507185919 | 86 | 65 | 2.6 | 7.8 | 0.00 | 0.00 | 0.00 | 79 | 1020.0 |
| 20260507185416 | 86 | 126 | 4.3 | 6.1 | 0.00 | 0.00 | 0.00 | 77 | 1020.2 |
| 20260507184913 | 86 | 75 | 3.5 | 11.3 | 0.00 | 0.00 | 0.00 | 79 | 1020.1 |
| 20260507184410 | 86 | 81 | 3.5 | 7.8 | 0.00 | 0.00 | 0.00 | 78 | 1020.0 |
| 20260507183908 | 88 | 133 | 0.9 | 5.2 | 0.00 | 0.00 | 0.00 | 74 | 1020.0 |
| 20260507183404 | 86 | 53 | 1.7 | 6.1 | 0.00 | 0.00 | 0.00 | 78 | 1020.0 |
| 20260507182902 | 88 | 120 | 3.5 | 7.8 | 0.00 | 0.00 | 0.00 | 76 | 1020.2 |
| 20260507182357 | 87 | 119 | 5.2 | 9.6 | 0.00 | 0.00 | 0.00 | 78 | 1020.0 |
| 20260507181854 | 86 | 80 | 1.7 | 7.8 | 0.00 | 0.00 | 0.00 | 78 | 1020.3 |
| 20260507181350 | 87 | 98 | 3.5 | 7.0 | 0.00 | 0.00 | 0.00 | 76 | 1020.3 |
| 20260507180847 | 86 | 118 | 1.7 | 7.0 | 0.00 | 0.00 | 0.00 | 78 | 1020.4 |
| 20260507180344 | 87 | 160 | 5.2 | 6.1 | 0.00 | 0.00 | 0.00 | 77 | 1020.5 |
| 20260507175839 | 87 | 15 | 1.7 | 5.2 | 0.00 | 0.00 | 0.00 | 76 | 1020.6 |
| 20260507175337 | 86 | 69 | 7.8 | 8.7 | 0.00 | 0.00 | 0.00 | 78 | 1020.6 |
| 20260507174834 | 87 | 17 | 1.7 | 5.2 | 0.00 | 0.00 | 0.00 | 76 | 1020.7 |
| 20260507174331 | 88 | 145 | 3.5 | 8.7 | 0.00 | 0.00 | 0.00 | 76 | 1020.5 |
| 20260507173829 | 86 | 58 | 1.7 | 8.7 | 0.00 | 0.00 | 0.00 | 78 | 1021.0 |
| 20260507173326 | 87 | 130 | 7.8 | 12.2 | 0.00 | 0.00 | 0.00 | 80 | 1020.9 |
| 20260507172822 | 86 | 99 | 5.2 | 8.7 | 0.00 | 0.00 | 0.00 | 78 | 1021.0 |
| 20260507172319 | 86 | 46 | 3.5 | 11.3 | 0.00 | 0.00 | 0.00 | 79 | 1020.9 |
| 20260507171815 | 86 | 78 | 1.7 | 7.8 | 0.00 | 0.00 | 0.00 | 79 | 1021.0 |
| 20260507171312 | 86 | 164 | 3.5 | 8.7 | 0.00 | 0.00 | 0.00 | 77 | 1021.0 |
| 20260507170809 | 87 | 112 | 2.6 | 7.8 | 0.00 | 0.00 | 0.00 | 77 | 1021.2 |
| 20260507170305 | 86 | 88 | 6.1 | 7.8 | 0.00 | 0.00 | 0.00 | 76 | 1021.3 |
| 20260507165801 | 86 | 139 | 4.3 | 7.8 | 0.00 | 0.00 | 0.00 | 79 | 1021.4 |
| 20260507165257 | 87 | 44 | 4.3 | 7.8 | 0.00 | 0.00 | 0.00 | 76 | 1021.3 |
| 20260507164753 | 86 | 348 | 4.3 | 7.0 | 0.00 | 0.00 | 0.00 | 77 | 1021.3 |
| 20260507164251 | 87 | 56 | 3.5 | 7.8 | 0.00 | 0.00 | 0.00 | 77 | 1021.7 |
| 20260507163748 | 85 | 51 | 2.6 | 7.0 | 0.00 | 0.00 | 0.00 | 79 | 1021.5 |
| 20260507163246 | 86 | 63 | 4.3 | 7.8 | 0.00 | 0.00 | 0.00 | 77 | 1021.8 |
| 20260507162741 | 87 | 114 | 6.1 | 7.8 | 0.00 | 0.00 | 0.00 | 79 | 1021.8 |
| 20260507162237 | 86 | 98 | 5.2 | 7.0 | 0.00 | 0.00 | 0.00 | 77 | 1021.9 |
| 20260507161734 | 87 | 91 | 4.3 | 7.0 | 0.00 | 0.00 | 0.00 | 76 | 1021.7 |
| 20260507161231 | 87 | 70 | 1.7 | 5.2 | 0.00 | 0.00 | 0.00 | 74 | 1021.9 |
| 20260507160726 | 87 | 73 | 6.1 | 8.7 | 0.00 | 0.00 | 0.00 | 74 | 1022.0 |
| 20260507160223 | 85 | 51 | 6.1 | 8.7 | 0.00 | 0.00 | 0.00 | 77 | 1022.0 |
| 20260507155719 | 86 | 60 | 3.5 | 8.7 | 0.00 | 0.00 | 0.00 | 79 | 1021.9 |
| 20260507155215 | 86 | 81 | 5.2 | 7.0 | 0.00 | 0.00 | 0.00 | 79 | 1021.9 |
| 20260507154712 | 87 | 131 | 4.3 | 7.8 | 0.00 | 0.00 | 0.00 | 76 | 1022.1 |
| 20260507154210 | 86 | 104 | 5.2 | 8.7 | 0.00 | 0.00 | 0.00 | 77 | 1022.1 |
| 20260507153707 | 86 | 150 | 3.5 | 8.7 | 0.00 | 0.00 | 0.00 | 77 | 1022.2 |
| 20260507153203 | 86 | 111 | 2.6 | 8.7 | 0.00 | 0.00 | 0.00 | 79 | 1022.3 |
| 20260507152659 | 86 | 102 | 4.3 | 11.3 | 0.00 | 0.00 | 0.00 | 79 | 1022.1 |
| 20260507152155 | 86 | 96 | 1.7 | 6.1 | 0.00 | 0.00 | 0.00 | 77 | 1022.3 |
| 20260507151651 | 85 | 106 | 5.2 | 7.8 | 0.00 | 0.00 | 0.00 | 78 | 1022.2 |
| 20260507151148 | 86 | 103 | 7.0 | 8.7 | 0.00 | 0.00 | 0.00 | 76 | 1022.2 |
| 20260507150646 | 86 | 139 | 5.2 | 11.3 | 0.00 | 0.00 | 0.00 | 79 | 1022.2 |
| 20260507150142 | 86 | 120 | 3.5 | 5.2 | 0.00 | 0.00 | 0.00 | 78 | 1022.1 |
| 20260507145637 | 86 | 118 | 2.6 | 9.6 | 0.00 | 0.00 | 0.00 | 79 | 1022.3 |
| 20260507145135 | 86 | 65 | 5.2 | 6.1 | 0.00 | 0.00 | 0.00 | 78 | 1022.1 |
| 20260507144631 | 86 | 33 | 3.5 | 7.0 | 0.00 | 0.00 | 0.00 | 77 | 1022.0 |
| 20260507144130 | 85 | 98 | 3.5 | 8.7 | 0.00 | 0.00 | 0.00 | 78 | 1022.0 |
| 20260507143626 | 86 | 109 | 2.6 | 7.0 | 0.00 | 0.00 | 0.00 | 78 | 1022.0 |
| 20260507143123 | 86 | 68 | 7.8 | 9.6 | 0.00 | 0.00 | 0.00 | 77 | 1022.2 |
| 20260507142619 | 85 | 56 | 4.3 | 11.3 | 0.00 | 0.00 | 0.00 | 79 | 1022.4 |
| 20260507142116 | 86 | 128 | 5.2 | 7.0 | 0.00 | 0.00 | 0.00 | 79 | 1022.3 |
| 20260507141612 | 85 | 73 | 4.3 | 8.7 | 0.00 | 0.00 | 0.00 | 80 | 1022.5 |
| 20260507141109 | 85 | 130 | 3.5 | 12.2 | 0.00 | 0.00 | 0.00 | 79 | 1022.4 |
| 20260507140605 | 87 | 104 | 1.7 | 6.1 | 0.00 | 0.00 | 0.00 | 77 | 1022.3 |
| 20260507135600 | 85 | 70 | 4.3 | 7.0 | 0.00 | 0.00 | 0.00 | 78 | 1022.6 |
| 20260507135051 | 85 | 123 | 7.0 | 8.7 | 0.00 | 0.00 | 0.00 | 78 | 1022.4 |
| 20260507134548 | 86 | 89 | 3.5 | 7.8 | 0.00 | 0.00 | 0.00 | 77 | 1022.4 |
| 20260507134043 | 86 | 84 | 9.6 | 12.2 | 0.00 | 0.00 | 0.00 | 77 | 1022.2 |
| 20260507133540 | 86 | 84 | 4.3 | 7.8 | 0.00 | 0.00 | 0.00 | 77 | 1022.2 |
| 20260507133038 | 85 | 74 | 0.9 | 6.1 | 0.00 | 0.00 | 0.00 | 76 | 1022.1 |
| 20260507132534 | 86 | 65 | 6.1 | 7.8 | 0.00 | 0.00 | 0.00 | 76 | 1022.1 |
| 20260507132031 | 85 | 94 | 5.2 | 9.6 | 0.00 | 0.00 | 0.00 | 79 | 1021.8 |
| 20260507131527 | 85 | 105 | 4.3 | 7.0 | 0.00 | 0.00 | 0.00 | 78 | 1021.9 |
| 20260507131025 | 84 | 62 | 2.6 | 7.8 | 0.00 | 0.00 | 0.00 | 80 | 1022.0 |
| 20260507130522 | 85 | 66 | 4.3 | 7.0 | 0.00 | 0.00 | 0.00 | 79 | 1021.9 |
| 20260507130020 | 85 | 93 | 5.2 | 9.6 | 0.00 | 0.00 | 0.00 | 80 | 1021.8 |
| 20260507125518 | 84 | 107 | 2.6 | 5.2 | 0.00 | 0.00 | 0.00 | 80 | 1021.8 |
| 20260507125015 | 85 | 87 | 4.3 | 8.7 | 0.00 | 0.00 | 0.00 | 81 | 1021.8 |
| 20260507124511 | 85 | 90 | 2.6 | 5.2 | 0.00 | 0.00 | 0.00 | 80 | 1021.7 |
| 20260507124009 | 84 | 159 | 4.3 | 7.8 | 0.00 | 0.00 | 0.00 | 81 | 1021.9 |
| 20260507123508 | 85 | 126 | 3.5 | 9.6 | 0.00 | 0.00 | 0.00 | 78 | 1021.6 |
| 20260507123004 | 84 | 81 | 3.5 | 5.2 | 0.00 | 0.00 | 0.00 | 80 | 1021.6 |
| 20260507122459 | 84 | 334 | 1.7 | 7.8 | 0.00 | 0.00 | 0.00 | 80 | 1021.5 |
| 20260507121955 | 84 | 122 | 3.5 | 7.0 | 0.00 | 0.00 | 0.00 | 81 | 1021.5 |
| 20260507121450 | 84 | 116 | 3.5 | 7.8 | 0.00 | 0.00 | 0.00 | 81 | 1021.4 |
| 20260507120947 | 83 | 61 | 1.7 | 7.0 | 0.00 | 0.00 | 0.00 | 85 | 1021.3 |
| 20260507120443 | 84 | 120 | 3.5 | 5.2 | 0.00 | 0.00 | 0.00 | 83 | 1021.3 |
| 20260507115941 | 83 | 85 | 2.6 | 5.2 | 0.00 | 0.00 | 0.00 | 84 | 1021.4 |
| 20260507115436 | 84 | 112 | 1.7 | 7.0 | 0.00 | 0.00 | 0.00 | 82 | 1021.2 |
| 20260507114932 | 84 | 83 | 3.5 | 6.1 | 0.00 | 0.00 | 0.00 | 81 | 1021.1 |
| 20260507114428 | 83 | 129 | 6.1 | 8.7 | 0.00 | 0.00 | 0.00 | 83 | 1021.2 |
| 20260507113926 | 83 | 80 | 2.6 | 8.7 | 0.00 | 0.00 | 0.00 | 82 | 1021.2 |
| 20260507113423 | 82 | 147 | 1.7 | 7.0 | 0.00 | 0.00 | 0.00 | 83 | 1020.8 |
| 20260507112920 | 83 | 132 | 2.6 | 7.0 | 0.00 | 0.00 | 0.00 | 82 | 1020.7 |
| 20260507112417 | 83 | 101 | 0.9 | 3.5 | 0.00 | 0.00 | 0.00 | 83 | 1020.6 |
| 20260507111915 | 82 | 114 | 2.6 | 5.2 | 0.00 | 0.00 | 0.00 | 83 | 1020.7 |
| 20260507111412 | 82 | 119 | 2.6 | 6.1 | 0.00 | 0.00 | 0.00 | 86 | 1020.6 |
| 20260507110908 | 82 | 120 | 0.0 | 6.1 | 0.00 | 0.00 | 0.00 | 87 | 1020.6 |
| 20260507110404 | 82 | 68 | 1.7 | 6.1 | 0.00 | 0.00 | 0.00 | 87 | 1020.6 |
| 20260507105901 | 81 | 68 | 1.7 | 8.7 | 0.00 | 0.00 | 0.00 | 89 | 1020.7 |
| 20260507105358 | 81 | 99 | 2.6 | 6.1 | 0.00 | 0.00 | 0.00 | 88 | 1020.6 |
| 20260507104854 | 81 | 97 | 2.6 | 3.5 | 0.00 | 0.00 | 0.00 | 89 | 1020.6 |
| 20260507104351 | 81 | 68 | 0.9 | 5.2 | 0.00 | 0.00 | 0.00 | 88 | 1020.4 |
| 20260507103847 | 81 | 54 | 2.6 | 6.1 | 0.00 | 0.00 | 0.00 | 89 | 1020.7 |
| 20260507103344 | 80 | 115 | 1.7 | 2.6 | 0.00 | 0.00 | 0.00 | 89 | 1020.7 |
| 20260507102841 | 80 | 67 | 1.7 | 6.1 | 0.00 | 0.00 | 0.00 | 90 | 1020.7 |
| 20260507102337 | 80 | 110 | 0.9 | 1.7 | 0.00 | 0.00 | 0.00 | 91 | 1020.6 |
| 20260507101834 | 80 | 113 | 0.9 | 0.9 | 0.00 | 0.00 | 0.00 | 91 | 1020.5 |
| 20260507101333 | 79 | 68 | 0.0 | 0.9 | 0.00 | 0.00 | 0.00 | 91 | 1020.5 |
| 20260507100831 | 79 | 100 | 0.9 | 0.9 | 0.00 | 0.00 | 0.00 | 92 | 1020.4 |
| 20260507100329 | 79 | 109 | 0.9 | 1.7 | 0.00 | 0.00 | 0.00 | 92 | 1020.3 |
| 20260507095827 | 79 | 129 | 1.7 | 2.6 | 0.00 | 0.00 | 0.00 | 92 | 1020.4 |
| 20260507095323 | 79 | 93 | 1.7 | 2.6 | 0.00 | 0.00 | 0.00 | 91 | 1020.4 |
| 20260507094820 | 79 | 122 | 2.6 | 3.5 | 0.00 | 0.00 | 0.00 | 91 | 1020.1 |
| 20260507094316 | 79 | 98 | 0.0 | 3.5 | 0.00 | 0.00 | 0.00 | 92 | 1020.5 |
| 20260507093814 | 79 | 94 | 1.7 | 2.6 | 0.00 | 0.00 | 0.00 | 91 | 1020.4 |
| 20260507093312 | 79 | 104 | 1.7 | 2.6 | 0.00 | 0.00 | 0.00 | 91 | 1020.3 |
| 20260507092809 | 79 | 111 | 0.0 | 1.7 | 0.00 | 0.00 | 0.00 | 91 | 1020.4 |
| 20260507092307 | 79 | 105 | 0.0 | 1.7 | 0.00 | 0.00 | 0.00 | 90 | 1020.4 |
| 20260507091802 | 79 | 121 | 1.7 | 2.6 | 0.00 | 0.00 | 0.00 | 90 | 1020.4 |
| 20260507091300 | 79 | 112 | 0.0 | 0.9 | 0.00 | 0.00 | 0.00 | 90 | 1020.3 |
| 20260507090800 | 79 | 102 | 0.0 | 1.7 | 0.00 | 0.00 | 0.00 | 89 | 1020.3 |
| 20260507090257 | 79 | 100 | 2.6 | 5.2 | 0.00 | 0.00 | 0.00 | 89 | 1020.4 |
| 20260507085754 | 79 | 113 | 0.0 | 0.9 | 0.00 | 0.00 | 0.00 | 89 | 1020.5 |
| 20260507085250 | 79 | 86 | 1.7 | 5.2 | 0.00 | 0.00 | 0.00 | 89 | 1020.3 |
| 20260507084748 | 79 | 108 | 1.7 | 5.2 | 0.00 | 0.00 | 0.00 | 90 | 1020.3 |
| 20260507084244 | 79 | 111 | 1.7 | 6.1 | 0.00 | 0.00 | 0.00 | 89 | 1020.4 |
| 20260507083742 | 79 | 53 | 0.9 | 3.5 | 0.00 | 0.00 | 0.00 | 90 | 1020.3 |
| 20260507083238 | 79 | 135 | 1.7 | 1.7 | 0.00 | 0.00 | 0.00 | 90 | 1020.3 |
| 20260507082734 | 79 | 118 | 0.9 | 3.5 | 0.00 | 0.00 | 0.00 | 90 | 1020.3 |
| 20260507082230 | 79 | 148 | 0.9 | 2.6 | 0.00 | 0.00 | 0.00 | 90 | 1020.2 |
| 20260507081727 | 79 | 88 | 2.6 | 3.5 | 0.00 | 0.00 | 0.00 | 90 | 1020.4 |
| 20260507081223 | 79 | 106 | 1.7 | 2.6 | 0.00 | 0.00 | 0.00 | 89 | 1020.3 |
| 20260507080720 | 80 | 99 | 1.7 | 2.6 | 0.00 | 0.00 | 0.00 | 89 | 1020.2 |
| 20260507080216 | 79 | 66 | 3.5 | 6.1 | 0.00 | 0.00 | 0.00 | 89 | 1020.4 |
| 20260507075711 | 80 | 82 | 0.9 | 2.6 | 0.00 | 0.00 | 0.00 | 90 | 1020.4 |
| 20260507075208 | 80 | 98 | 0.0 | 2.6 | 0.00 | 0.00 | 0.00 | 90 | 1020.3 |
| 20260507074704 | 80 | 114 | 0.9 | 1.7 | 0.00 | 0.00 | 0.00 | 90 | 1020.4 |
| 20260507074203 | 79 | 103 | 1.7 | 1.7 | 0.00 | 0.00 | 0.00 | 90 | 1020.3 |
| 20260507073659 | 79 | 99 | 0.0 | 1.7 | 0.00 | 0.00 | 0.00 | 90 | 1020.2 |
| 20260507073155 | 80 | 114 | 0.9 | 2.6 | 0.00 | 0.00 | 0.00 | 90 | 1020.3 |
| 20260507072653 | 80 | 97 | 0.0 | 0.0 | 0.00 | 0.00 | 0.00 | 90 | 1020.4 |
| 20260507072150 | 80 | 97 | 0.0 | 0.9 | 0.00 | 0.00 | 0.00 | 90 | 1020.5 |
| 20260507071648 | 80 | 133 | 0.0 | 1.7 | 0.00 | 0.00 | 0.00 | 90 | 1020.4 |
| 20260507071144 | 80 | 109 | 0.0 | 0.9 | 0.00 | 0.00 | 0.00 | 89 | 1020.4 |
| 20260507070641 | 80 | 103 | 0.0 | 3.5 | 0.00 | 0.00 | 0.00 | 89 | 1020.4 |
| 20260507070138 | 80 | 114 | 0.9 | 2.6 | 0.00 | 0.00 | 0.00 | 89 | 1020.4 |
| 20260507065634 | 80 | 133 | 0.9 | 0.9 | 0.00 | 0.00 | 0.00 | 89 | 1020.6 |
| 20260507065131 | 80 | 131 | 0.9 | 2.6 | 0.00 | 0.00 | 0.00 | 89 | 1020.6 |
| 20260507064629 | 79 | 119 | 0.0 | 1.7 | 0.00 | 0.00 | 0.00 | 89 | 1020.6 |
| 20260507064128 | 79 | 109 | 0.9 | 2.6 | 0.00 | 0.00 | 0.00 | 89 | 1020.8 |
| 20260507063625 | 79 | 130 | 2.6 | 3.5 | 0.00 | 0.00 | 0.00 | 88 | 1020.7 |
| 20260507063121 | 79 | 97 | 0.9 | 1.7 | 0.00 | 0.00 | 0.00 | 88 | 1020.8 |
| 20260507062618 | 79 | 129 | 1.7 | 1.7 | 0.00 | 0.00 | 0.00 | 88 | 1020.9 |
| 20260507062116 | 79 | 116 | 0.0 | 2.6 | 0.00 | 0.00 | 0.00 | 89 | 1021.1 |
| 20260507061613 | 79 | 101 | 0.0 | 0.9 | 0.00 | 0.00 | 0.00 | 89 | 1020.9 |
| 20260507061111 | 80 | 120 | 0.9 | 1.7 | 0.00 | 0.00 | 0.00 | 90 | 1021.1 |
| 20260507060609 | 80 | 109 | 0.9 | 2.6 | 0.00 | 0.00 | 0.00 | 90 | 1021.1 |
| 20260507060105 | 80 | 110 | 1.7 | 1.7 | 0.00 | 0.00 | 0.00 | 90 | 1021.0 |
| 20260507055601 | 80 | 126 | 0.0 | 1.7 | 0.00 | 0.00 | 0.00 | 90 | 1021.1 |
| 20260507055057 | 80 | 118 | 0.0 | 1.7 | 0.00 | 0.00 | 0.00 | 90 | 1021.5 |
| 20260507054553 | 80 | 101 | 0.0 | 1.7 | 0.00 | 0.00 | 0.00 | 90 | 1021.3 |
| 20260507054050 | 80 | 105 | 0.0 | 1.7 | 0.00 | 0.00 | 0.00 | 90 | 1021.2 |
| 20260507053548 | 80 | 135 | 0.9 | 2.6 | 0.00 | 0.00 | 0.00 | 90 | 1021.5 |
| 20260507053047 | 80 | 124 | 1.7 | 2.6 | 0.00 | 0.00 | 0.00 | 90 | 1021.4 |
| 20260507052544 | 80 | 113 | 0.9 | 2.6 | 0.00 | 0.00 | 0.00 | 90 | 1021.6 |
| 20260507052040 | 80 | 95 | 1.7 | 2.6 | 0.00 | 0.00 | 0.00 | 90 | 1021.8 |
| 20260507051538 | 80 | 130 | 1.7 | 2.6 | 0.00 | 0.00 | 0.00 | 90 | 1021.8 |
| 20260507051035 | 80 | 95 | 1.7 | 1.7 | 0.00 | 0.00 | 0.00 | 90 | 1021.8 |
| 20260507050531 | 80 | 121 | 0.0 | 1.7 | 0.00 | 0.00 | 0.00 | 90 | 1022.1 |
| 20260507050028 | 80 | 92 | 0.9 | 2.6 | 0.00 | 0.00 | 0.00 | 90 | 1022.0 |
| 20260507045524 | 80 | 89 | 0.9 | 1.7 | 0.00 | 0.00 | 0.00 | 89 | 1022.1 |
| 20260507045022 | 80 | 62 | 0.9 | 2.6 | 0.00 | 0.00 | 0.00 | 89 | 1022.3 |
| 20260507044518 | 80 | 134 | 0.9 | 0.9 | 0.00 | 0.00 | 0.00 | 89 | 1022.2 |
| 20260507044015 | 80 | 108 | 2.6 | 2.6 | 0.00 | 0.00 | 0.00 | 89 | 1022.4 |
| 20260507043511 | 80 | 148 | 0.9 | 2.6 | 0.00 | 0.00 | 0.00 | 88 | 1022.3 |
| 20260507043009 | 80 | 111 | 0.9 | 5.2 | 0.00 | 0.00 | 0.00 | 88 | 1022.5 |
| 20260507042504 | 80 | 92 | 0.9 | 3.5 | 0.00 | 0.00 | 0.00 | 87 | 1022.5 |
| 20260507042000 | 81 | 70 | 0.9 | 3.5 | 0.00 | 0.00 | 0.00 | 87 | 1022.4 |
| 20260507041457 | 81 | 90 | 0.9 | 6.1 | 0.00 | 0.00 | 0.00 | 87 | 1022.6 |
| 20260507040954 | 81 | 82 | 2.6 | 5.2 | 0.00 | 0.00 | 0.00 | 86 | 1022.5 |
| 20260507040450 | 81 | 106 | 1.7 | 5.2 | 0.00 | 0.00 | 0.00 | 86 | 1022.5 |
| 20260507035946 | 81 | 97 | 0.0 | 2.6 | 0.00 | 0.00 | 0.00 | 86 | 1022.5 |
| 20260507035443 | 81 | 104 | 1.7 | 2.6 | 0.00 | 0.00 | 0.00 | 86 | 1022.6 |
| 20260507034939 | 81 | 104 | 3.5 | 5.2 | 0.00 | 0.00 | 0.00 | 86 | 1022.9 |
| 20260507034436 | 81 | 101 | 1.7 | 6.1 | 0.00 | 0.00 | 0.00 | 86 | 1023.0 |
| 20260507033935 | 81 | 88 | 2.6 | 5.2 | 0.00 | 0.00 | 0.00 | 86 | 1022.9 |
| 20260507033432 | 81 | 92 | 3.5 | 3.5 | 0.00 | 0.00 | 0.00 | 86 | 1023.0 |
| 20260507032929 | 81 | 94 | 1.7 | 6.1 | 0.00 | 0.00 | 0.00 | 86 | 1023.0 |
| 20260507032426 | 81 | 55 | 2.6 | 5.2 | 0.00 | 0.00 | 0.00 | 86 | 1022.8 |
| 20260507031921 | 81 | 88 | 0.9 | 5.2 | 0.00 | 0.00 | 0.00 | 86 | 1022.9 |
| 20260507031418 | 81 | 68 | 4.3 | 7.0 | 0.00 | 0.00 | 0.00 | 86 | 1022.9 |
| 20260507030915 | 81 | 83 | 0.9 | 3.5 | 0.00 | 0.00 | 0.00 | 86 | 1022.8 |
| 20260507030413 | 81 | 125 | 0.9 | 6.1 | 0.00 | 0.00 | 0.00 | 87 | 1022.9 |
| 20260507025909 | 81 | 28 | 3.5 | 7.0 | 0.00 | 0.00 | 0.00 | 87 | 1022.8 |
| 20260507025407 | 81 | 103 | 3.5 | 5.2 | 0.00 | 0.00 | 0.00 | 87 | 1022.8 |
| 20260507024905 | 81 | 80 | 3.5 | 6.1 | 0.00 | 0.00 | 0.00 | 87 | 1022.8 |
| 20260507024402 | 81 | 123 | 2.6 | 6.1 | 0.00 | 0.00 | 0.00 | 86 | 1022.8 |
| 20260507023857 | 81 | 56 | 1.7 | 7.0 | 0.00 | 0.00 | 0.00 | 87 | 1022.7 |
| 20260507023354 | 81 | 91 | 1.7 | 7.0 | 0.00 | 0.00 | 0.00 | 86 | 1022.8 |
| 20260507022852 | 81 | 100 | 1.7 | 7.0 | 0.00 | 0.00 | 0.00 | 86 | 1023.0 |
| 20260507022348 | 81 | 72 | 2.6 | 7.0 | 0.00 | 0.00 | 0.00 | 87 | 1022.9 |
| 20260507021844 | 81 | 109 | 4.3 | 7.0 | 0.00 | 0.00 | 0.00 | 86 | 1022.8 |
| 20260507021339 | 82 | 108 | 1.7 | 2.6 | 0.00 | 0.00 | 0.00 | 86 | 1022.7 |
| 20260507020838 | 81 | 322 | 0.9 | 6.1 | 0.00 | 0.00 | 0.00 | 87 | 1022.7 |
| 20260507020334 | 81 | 77 | 2.6 | 5.2 | 0.00 | 0.00 | 0.00 | 87 | 1022.9 |
| 20260507015831 | 81 | 61 | 3.5 | 5.2 | 0.00 | 0.00 | 0.00 | 87 | 1022.7 |
| 20260507015329 | 81 | 135 | 1.7 | 5.2 | 0.00 | 0.00 | 0.00 | 87 | 1022.8 |
| 20260507014826 | 81 | 115 | 1.7 | 2.6 | 0.00 | 0.00 | 0.00 | 87 | 1022.7 |
| 20260507014322 | 81 | 115 | 1.7 | 7.8 | 0.00 | 0.00 | 0.00 | 87 | 1022.5 |
| 20260507013818 | 81 | 113 | 2.6 | 3.5 | 0.00 | 0.00 | 0.00 | 88 | 1022.5 |
| 20260507013316 | 81 | 123 | 1.7 | 5.2 | 0.00 | 0.00 | 0.00 | 88 | 1022.5 |
| 20260507012813 | 81 | 85 | 3.5 | 7.8 | 0.00 | 0.00 | 0.00 | 88 | 1022.4 |
| 20260507012308 | 81 | 56 | 4.3 | 5.2 | 0.00 | 0.00 | 0.00 | 88 | 1022.4 |
| 20260507011806 | 81 | 85 | 1.7 | 3.5 | 0.00 | 0.00 | 0.00 | 88 | 1022.2 |
| 20260507011302 | 81 | 87 | 3.5 | 5.2 | 0.00 | 0.00 | 0.00 | 88 | 1022.1 |
| 20260507010801 | 81 | 109 | 3.5 | 3.5 | 0.00 | 0.00 | 0.00 | 88 | 1022.2 |
| 20260507010258 | 81 | 59 | 2.6 | 5.2 | 0.00 | 0.00 | 0.00 | 88 | 1022.0 |
| 20260507005755 | 81 | 90 | 1.7 | 5.2 | 0.00 | 0.00 | 0.00 | 89 | 1021.9 |
| 20260507005251 | 81 | 103 | 1.7 | 6.1 | 0.00 | 0.00 | 0.00 | 89 | 1021.9 |
| 20260507004748 | 81 | 64 | 1.7 | 2.6 | 0.00 | 0.00 | 0.00 | 88 | 1021.9 |
| 20260507004246 | 81 | 141 | 1.7 | 7.0 | 0.00 | 0.00 | 0.00 | 88 | 1022.0 |
| 20260507003742 | 81 | 122 | 4.3 | 6.1 | 0.00 | 0.00 | 0.00 | 88 | 1021.8 |
| 20260507003237 | 81 | 108 | 3.5 | 6.1 | 0.00 | 0.00 | 0.00 | 89 | 1021.7 |
| 20260507002734 | 81 | 99 | 2.6 | 5.2 | 0.00 | 0.00 | 0.00 | 88 | 1022.0 |
| 20260507002230 | 81 | 105 | 2.6 | 2.6 | 0.00 | 0.00 | 0.00 | 88 | 1021.8 |
| 20260507001727 | 81 | 132 | 1.7 | 2.6 | 0.00 | 0.00 | 0.00 | 88 | 1021.6 |
| 20260507001224 | 81 | 87 | 1.7 | 5.2 | 0.00 | 0.00 | 0.00 | 88 | 1021.6 |
| 20260507000720 | 81 | 98 | 2.6 | 3.5 | 0.00 | 0.00 | 0.00 | 89 | 1021.5 |
| 20260507000216 | 81 | 101 | 2.6 | 5.2 | 0.00 | 0.00 | 0.00 | 88 | 1021.7 |
| 20260506235713 | 81 | 156 | 1.7 | 3.5 | 0.00 | 0.00 | 0.00 | 88 | 1021.3 |
| 20260506235208 | 81 | 122 | 4.3 | 6.1 | 0.00 | 0.00 | 0.00 | 88 | 1021.4 |
| 20260506234706 | 81 | 70 | 0.9 | 7.0 | 0.00 | 0.00 | 0.00 | 88 | 1021.3 |
| 20260506234203 | 81 | 121 | 1.7 | 5.2 | 0.00 | 0.00 | 0.00 | 88 | 1021.1 |
| 20260506233700 | 81 | 93 | 1.7 | 3.5 | 0.00 | 0.00 | 0.00 | 88 | 1021.1 |
| 20260506233157 | 81 | 113 | 1.7 | 3.5 | 0.00 | 0.00 | 0.00 | 88 | 1021.0 |
| 20260506232653 | 81 | 118 | 1.7 | 5.2 | 0.00 | 0.00 | 0.00 | 88 | 1021.1 |
| 20260506232148 | 81 | 84 | 1.7 | 2.6 | 0.00 | 0.00 | 0.00 | 88 | 1020.9 |
| 20260506231646 | 81 | 59 | 2.6 | 3.5 | 0.00 | 0.00 | 0.00 | 88 | 1020.9 |
| 20260506231144 | 81 | 140 | 0.9 | 5.2 | 0.00 | 0.00 | 0.00 | 88 | 1021.0 |
| 20260506230641 | 81 | 70 | 0.9 | 7.0 | 0.00 | 0.00 | 0.00 | 88 | 1020.9 |
| 20260506230137 | 81 | 103 | 3.5 | 6.1 | 0.00 | 0.00 | 0.00 | 88 | 1020.9 |
| 20260506225634 | 81 | 120 | 1.7 | 6.1 | 0.00 | 0.00 | 0.00 | 88 | 1020.9 |
| 20260506225131 | 81 | 148 | 1.7 | 5.2 | 0.00 | 0.00 | 0.00 | 88 | 1020.7 |
| 20260506224627 | 81 | 99 | 1.7 | 7.0 | 0.00 | 0.00 | 0.00 | 88 | 1020.6 |
| 20260506224124 | 82 | 47 | 1.7 | 5.2 | 0.00 | 0.00 | 0.00 | 87 | 1020.7 |
| 20260506223620 | 82 | 82 | 2.6 | 6.1 | 0.00 | 0.00 | 0.00 | 87 | 1020.6 |
| 20260506223116 | 82 | 117 | 1.7 | 5.2 | 0.00 | 0.00 | 0.00 | 87 | 1020.5 |
| 20260506222614 | 82 | 111 | 5.2 | 7.0 | 0.00 | 0.00 | 0.00 | 87 | 1020.5 |
| 20260506222110 | 82 | 110 | 2.6 | 6.1 | 0.00 | 0.00 | 0.00 | 87 | 1020.6 |
| 20260506221608 | 82 | 113 | 4.3 | 7.0 | 0.00 | 0.00 | 0.00 | 87 | 1020.3 |
| 20260506221106 | 82 | 86 | 3.5 | 6.1 | 0.00 | 0.00 | 0.00 | 87 | 1020.3 |
| 20260506220601 | 82 | 121 | 4.3 | 7.8 | 0.00 | 0.00 | 0.00 | 86 | 1020.3 |
| 20260506220057 | 83 | 111 | 1.7 | 6.1 | 0.00 | 0.00 | 0.00 | 86 | 1020.3 |
| 20260506215554 | 83 | 101 | 2.6 | 5.2 | 0.00 | 0.00 | 0.00 | 85 | 1020.4 |
| 20260506215049 | 84 | 132 | 1.7 | 7.0 | 0.00 | 0.00 | 0.00 | 84 | 1020.4 |
| 20260506214546 | 83 | 45 | 3.5 | 6.1 | 0.00 | 0.00 | 0.00 | 84 | 1020.2 |
| 20260506214044 | 83 | 115 | 1.7 | 3.5 | 0.00 | 0.00 | 0.00 | 84 | 1020.4 |
| 20260506213542 | 83 | 123 | 1.7 | 7.0 | 0.00 | 0.00 | 0.00 | 84 | 1020.3 |
| 20260506213039 | 84 | 139 | 2.6 | 8.7 | 0.00 | 0.00 | 0.00 | 84 | 1020.2 |
| 20260506212535 | 84 | 137 | 3.5 | 7.0 | 0.00 | 0.00 | 0.00 | 84 | 1020.3 |
| 20260506212030 | 84 | 110 | 3.5 | 9.6 | 0.00 | 0.00 | 0.00 | 83 | 1020.3 |
| 20260506211526 | 84 | 125 | 7.0 | 12.2 | 0.00 | 0.00 | 0.00 | 83 | 1020.2 |
| 20260506211024 | 85 | 134 | 5.2 | 8.7 | 0.00 | 0.00 | 0.00 | 83 | 1020.1 |
| 20260506210520 | 84 | 115 | 1.7 | 9.6 | 0.00 | 0.00 | 0.00 | 84 | 1019.9 |